Regional Weather Roundup
Issued by NWS

Home | Current Version | Previous Version | Graphics & Text | Print | Product List | Glossary On
Versions: 1 2 3 4 5 6 7 8 9 10 11 12 13 14 15 16 17 18 19 20 21 22 23 24 25 26 27 28 29 30 31 32 33 34 35 36 37 38 39 40 41 42 43 44 45 46 47 48 49 50
000
ASUS43 KLOT 042301
RWRIL

ILLINOIS REGIONAL WEATHER ROUNDUP
NATIONAL WEATHER SERVICE CHICAGO/ROMEOVILLE IL
600 PM CDT TUE AUG 04 2015

NOTE: "FAIR" INDICATES FEW OR NO CLOUDS BELOW 12,000 FEET WITH NO
SIGNIFICANT WEATHER AND/OR OBSTRUCTIONS TO VISIBILITY.

* THESE STATIONS ARE NOT UNDER NWS QUALITY CONTROL. THEY ALSO MAY NOT
  REPORT WEATHER SUCH AS PRECIPITATION OR FOG.

ILZ001-002-007-009-015-016-024-050000-
NORTHWEST ILLINOIS

CITY           SKY/WX    TMP DP  RH WIND       PRES   REMARKS
MOLINE         PTSUNNY   81  60  48 W3        29.95S HX  82
STERLING*      SUNNY     81  61  50 NE7       29.93F HX  81
$$

ILZ003-004-008-010-011-017-018-050000-
NORTH CENTRAL ILLINOIS

CITY           SKY/WX    TMP DP  RH WIND       PRES   REMARKS
ROCKFORD       PTSUNNY   79  52  38 NW7       29.97F
$$

ILZ005-006-012>014-019>023-050000-
NORTHEAST ILLINOIS

CITY           SKY/WX    TMP DP  RH WIND       PRES   REMARKS
CHICAGO-OHARE  PTSUNNY   80  51  36 NW8       29.94F HX  80
CHICAGO-MIDWAY PTSUNNY   81  52  36 W9        29.94F HX  80
AURORA         PTSUNNY   78  54  43 NW8       29.96F
WAUKEGAN       PTSUNNY   76  55  48 VRB5      29.95F
DUPAGE AIRPORT PTSUNNY   79  54  41 N12       29.95F
WHEELING       PTSUNNY   77  53  43 N9        29.96F
NORTHERLY ISL    N/A     75  63  66 E6          N/A
$$

LMZ740>746-050000-
SOUTHERN LAKE MICHIGAN

STATION/POSITION SKY/WX   TEMP    WIND        PRES    VSBY  WAVE
                          AIR SEA DIR/SP/G                  HT/PER
                          (F)     (DEG/KT/KT) (MB)    (MI)  (FT/S)
HARRISON CRIB              75     110/  8/  9   N/A
BURNHAM HARBOR             76      90/  8/ 13   N/A
CALUMET HARBOR             76      60/  6/  9   N/A
BURNS HARBOR               77      60/  7/  8 1014.9F
MICHIGAN CITY              75      30/  3/  4   N/A
MICHIGAN CITY 6N           76 76   90/  2/  4   N/A           1
ST. JOSEPH                 75 75  280/  2/  4   N/A           1
$$

ILZ025>027-034>036-040-047-049-050-058-095>099-050000-
WEST-CENTRAL ILLINOIS

CITY           SKY/WX    TMP DP  RH WIND       PRES   REMARKS
QUINCY         CLOUDY    77  62  59 E7        29.96F
MACOMB*        PTSUNNY   78  61  55 CALM      29.99F
$$

ILZ028>032-037-038-041>044-048-051>054-059>061-050000-
CENTRAL ILLINOIS

CITY           SKY/WX    TMP DP  RH WIND       PRES   REMARKS
DECATUR        PTSUNNY   79  60  52 N3        29.98S HX  80
PEORIA         CLOUDY    81  61  50 NW3       29.97F HX  82
SPRINGFIELD    PTSUNNY   79  61  53 N7        29.97F HX  80
TAYLORVILLE    NOT AVBL
$$

ILZ033-039-045-046-055>057-062-063-050000-
EAST-CENTRAL ILLINOIS

CITY           SKY/WX    TMP DP  RH WIND       PRES   REMARKS
CHAMPAIGN      PTSUNNY   78  60  53 W3        29.98F
MATTOON        PTSUNNY   77  63  61 SW6       29.97F
$$

ILZ079-100>102-050000-
SOUTHWEST ILLINOIS

CITY           SKY/WX    TMP DP  RH WIND       PRES   REMARKS
ALTON          PTSUNNY   81  70  69 NE6       29.95F HX  84
CAHOKIA*       CLOUDY    85  71  63 E8        29.94F HX  90
$$

ILZ064>066-069>071-074>076-080>082-084>086-088>090-092>094-050000-
SOUTH-CENTRAL ILLINOIS

CITY           SKY/WX    TMP DP  RH WIND       PRES   REMARKS
CARBONDALE     CLOUDY    81  69  67 CALM      29.94F HX  84
MARION         CLOUDY    82  68  61 NE6       29.96F HX  85
MT. VERNON     CLOUDY    72  64  78 NE7       29.97F
SALEM*         CLOUDY    83  68  60 CALM      29.97F HX  86
$$

ILZ067-068-072-073-078-083-087-091-050000-
SOUTHEAST ILLINOIS

CITY           SKY/WX    TMP DP  RH WIND       PRES   REMARKS
LAWRENCEVILLE  PTSUNNY   79  66  64 N3        29.99R HX  81
FLORA*         PTSUNNY   78  67  69 S9        29.99R HX  80
HARRISBURG*    CLOUDY    74  67  76 NE9       29.99R
ROBINSON*      PTSUNNY   77  68  75 CALM      30.00R
CARMI*         TSTM      68  64  84 NE10      30.02R
$$

ABBREVIATIONS USED IN REMARKS
   TC - TEMPERATURE IN CELSIUS
  WCI - WIND CHILL INDEX
   HX - HEAT INDEX
  VSB - VISIBILITY
$$




USA.gov is the U.S. government's official web portal to all federal, state and local government web resources and services.